Starlink 1848

operational
NORAD ID: 46740 Int'l Des: 2020-074 Owner: SPXS Country: US Constellation: starlink
LEOCIRCULAR

Über Starlink 1848

Beschreibung wird geladen...

Live-Position

3D-Globus wird geladen...

Nächste Überflüge

Höhenverlauf

Altitude vs Time

uPlot chart will show altitude changes over time

Zweizeiliger Elementsatz

1 46740U 20074B 25352.33335648 .00222134 00000-0 27282-2 0 9993
2 46740 53.0477 299.3961 0003651 56.8663 37.4379 15.59040098 5837
Epoch: 18. Dez. 2025 • Age: 7 hours

Aktueller Status

Höhe 388.7 km
Geschwindigkeit 7.68 km/s
Subsatellitenpunkt 23.85°N, 1.58°W
Startdatum 24. Okt. 2020
Alter 5.1 years
Typ internet

Technische Details

Klassifizierung Payload
Masse 260.00 kg
Trockenmasse 248.00 kg
Gesamtmasse 260.00 kg
Länge 0.20 m
Durchmesser 2.80 m
Spannweite 9.00 m
Form Box + pan
Hersteller SPXS
Bus-Typ Starlink
Phasenstatus In Orbit
Besitzer/Staat SPXS/US

Große Konstellationen

Loading constellations...